Hourly Data Report for June 17, 2012

All times are specified in Local Standard Time (LST). Add 1 hour to adjust for Daylight Saving Time where and when it is observed.

MONCTON INTL A
NEW BRUNSWICK

46°06'44.000" N
64°40'43.000" W
70.70 m
8103201
71705
YQM

Download Data

Hourly Data (June 2012)
Hourly Data Report for June 17, 2012
Temp Definition
°C
Dew Point Temp Definition
°C
Rel Hum Definition
%
Wind Dir Definition
10's deg

Wind Spd Definition
km/h
Visibility Definition
km
Stn Press Definition
kPa
Hmdx Definition


Wind Chill Definition


Weather Definition


TIME
00:00 9.4 7.4 87 12 8 10.0 101.80     LegendNANA
01:00 7.7 7.0 95 10 7 10.0 101.76     LegendNANA
02:00 6.7 6.1 96   0 10.0 101.73     Mainly Clear
03:00 6.3 5.6 95 13 6 10.0 101.68     LegendNANA
04:00 6.1 5.7 97 19 6 3.2 101.70     Fog
05:00 6.6 6.2 97 21 11 10.0 101.70     Mainly Clear
06:00 7.8 7.1 95 21 9 10.0 101.71     LegendNANA
07:00 11.1 8.5 84 20 9 10.0 101.72     LegendNANA
08:00 13.6 8.5 71 23 10 10.0 101.71     Mainly Clear
09:00 15.5 8.6 63 24 6 10.0 101.67     LegendNANA
10:00 16.8 8.6 58 21 10 10.0 101.64     LegendNANA
11:00 18.0 8.7 54   0 10.0 101.61     Mainly Clear
12:00 19.7 9.1 50 15 18 10.0 101.56     LegendNANA
13:00 20.3 7.5 43 12 11 10.0 101.49     LegendNANA
14:00 20.8 5.7 37 18 6 10.0 101.43     Mainly Clear
15:00 21.2 6.1 37 16 11 10.0 101.39     LegendNANA
16:00 21.6 8.7 43 12 17 10.0 101.31     LegendNANA
17:00 21.6 8.7 43 16 14 10.0 101.26     Mainly Clear
18:00 20.4 8.2 45 15 18 10.0 101.23     LegendNANA
19:00 19.0 7.9 48 16 14 10.0 101.20     LegendNANA
20:00 16.6 6.5 51 15 9 10.0 101.21     Mainly Clear
21:00 14.3 6.5 59 15 9 10.0 101.26     LegendNANA
22:00 13.6 7.0 64 16 11 10.0 101.28     LegendNANA
23:00 13.0 7.1 67 20 6 10.0 101.31     Mainly Clear

Notes on Data Quality.

Legend

  • E = Estimated
  • M = Missing
  • NA = Not Available
Date modified: